Weather in Fyodorovka

Kazakhstan     51°13′28″N   51°57′49″E
temp.,
°C
wind,
m/s
gust,
m/s
humid.,
%
clouds,
%
prec.,
mm/h
press.,
hPa
HPBL,
m
7 march, sun
sun723:00−5nne4697100 1.0 1011176
02:00−5nne61096100 1.4 1009360
05:00−6nne61095100 2.7 1009417
08:00−8nne4793100 0.6 1010229
11:00−10nnw478483 0.6 1012241
14:00−8nw34800 0.0 1014235
17:00−8wsw35850 0.0 1015250
20:00−12sw45920 0.0 101679
8 march, mon
mon823:00−12sw589640 0.0 1016134
02:00−10ssw7148867 0.0 1014318
05:00−7ssw9188483 0.0 1012585
08:00−6ssw10188497 0.0 1009652
11:00−4sw11179098 0.1 1010878
14:00−2sw101492100 0.3 1010899
17:00−1sw91395100 0.8 10091011
20:00−2sw81595100 0.6 1008850
9 march, tue
tue923:00−1sw91694100 1.0 1008804
02:00−1sw91595100 0.4 1008717
05:00−1sw71294100 0.8 1008668
08:00−2sw5997100 0.9 1008403
11:00−4nnw6896100 4.1 1008408
14:00−4nw4687100 0.9 1009527
17:00−6wnw468690 0.9 1010296
20:00−12w349370 0.0 101141
10 march, wed
wed1023:00−14w349640 0.0 101337
02:00−16w349819 0.0 101330
05:00−15w349756 0.1 101367
08:00−16wnw369797 0.1 1015117
11:00−16wnw469386 0.1 1016253
14:00−15wnw469161 0.0 1018348
17:00−15wnw469166 0.0 1018403
20:00−20wnw349868 0.0 102044
11 march, thu
thu1123:00−23wnw349834 0.0 102226
02:00−24nw349949 0.0 102334
05:00−26nw349525 0.0 102538
08:00−28nw34970 0.0 102627
11:00−24nnw34940 0.0 1029184
14:00−20nw34840 0.0 1030306
17:00−19nw34870 0.0 1030263
20:00−23w33920 0.0 103120